Weather Roundup
Issued by NWS

Home | Current Version | Previous Version | Graphics & Text | Print | Product List | Glossary Off
Versions: 1 2 3 4 5 6 7 8 9 10 11 12 13 14 15 16 17 18 19 20 21 22 23 24 25 26 27 28 29 30 31 32 33 34 35 36 37 38 39 40 41 42 43 44 45 46 47 48 49 50

000
NZUS93 KARX 251810
HRRWXR

CURRENT HOURLY OBSERVATIONS ACROSS
MUCH OF THE UPPER MISSISSIPPI VALLEY
NATIONAL WEATHER SERVICE LA CROSSE WI
100 PM CDT SAT APR 25 2015


...SOUTHEAST MINNESOTA...


CITY           SKY/WX    TMP DP  RH WIND       PRES   REMARKS
ROCHESTER      CLOUDY    50  40  68 NE20      29.81S
ROCHESTER/MAYO CLOUDY    49  39  69 E12G20    29.82S
WINONA         NOT AVBL
AUSTIN         PTSUNNY   52  43  71 E16G23    29.77S
ALBERT LEA     PTSUNNY   54  45  71 NE15G23   29.78R
DODGE CENTER   CLOUDY    50  43  76 E17       29.81S
PRESTON        PTSUNNY   49  37  63 E20       29.79F
OWATONNA       PTSUNNY   52  39  62 E14       29.82S
FARIBAULT      CLOUDY    50  39  66 E13       29.83S
$$

...ELSEWHERE IN MINNESOTA...


CITY           SKY/WX    TMP DP  RH WIND       PRES   REMARKS
MINNEAPOLIS    MOSUNNY   56  35  45 E18G24    29.84F
INTNL FALLS    SUNNY     52  24  33 E7G18     29.98S
DULUTH         PTSUNNY   47  28  47 E16G22    29.96F
RED WING       PTSUNNY   55  36  47 NE10      29.82F
REDWOOD FALLS  PTSUNNY   54  39  57 E15G21    29.81S
MANKATO        CLOUDY    52  37  58 E17       29.82S
WORTHINGTON    PTSUNNY   52  39  62 E20       29.77R
FAIRMONT       CLOUDY    52  39  62 NE15      29.78S
$$

...SOUTHWEST WISCONSIN...


CITY           SKY/WX    TMP DP  RH WIND       PRES   REMARKS
LA CROSSE      CLOUDY    52  37  56 NE13G23   29.83F
PRAIRIE DU CHI CLOUDY    48  36  61 NE14G24   29.78R
BOSCOBEL       PTSUNNY   52  37  56 E13G21    29.80F
LONE ROCK      CLOUDY    50  37  61 E22G29    29.80F
PLATTEVILLE    CLOUDY    46  40  80 E18G25    29.77S
FORT MC COY    CLOUDY    51  32  48 NE15G22   29.84F
CAMP DOUGLAS   PTSUNNY   50  32  50 E14G22    29.84F
VIROQUA        CLOUDY    51  38  60 E18G25    29.80F
WIS DELLS      CLOUDY    48  33  55 NE15G21   29.82F
$$

...ELSEWHERE IN WISCONSIN...


CITY           SKY/WX    TMP DP  RH WIND       PRES   REMARKS
MILWAUKEE      CLOUDY    40  32  73 N17       29.84F WCI  31
MADISON        CLOUDY    49  36  61 E17G24    29.81F
GREEN BAY      CLOUDY    47  21  35 NE22      29.91F
EAU CLAIRE     CLOUDY    54  18  24 E15G24    29.86F
BLACK RVR FLS  CLOUDY    54  28  37 E10G18    29.84F
MEDFORD        SUNNY     53  21  28 E15       29.87F
WAUSAU         MOSUNNY   53  21  28 E18       29.86F
WIS RAPIDS     SUNNY     54  12  18 E20G28    29.87F
MARSHFIELD     MOSUNNY   54  18  24 E17G24    29.86F
RICE LAKE      SUNNY     56  12  17 E12G21    29.89F
$$

...NORTHEAST IOWA...


CITY           SKY/WX    TMP DP  RH WIND       PRES   REMARKS
DECORAH        CLOUDY    50  37  62 E17G25    29.76S
MASON CITY     MOSUNNY   53  40  61 E22G30    29.75S
CHARLES CITY   CLOUDY    50  41  71 E22G31    29.75F
OELWEIN        CLOUDY    48  41  76 E24G31    29.71F
$$

...ELSEWHERE IN IOWA...


CITY           SKY/WX    TMP DP  RH WIND       PRES   REMARKS
DES MOINES     CLOUDY    48  43  82 E14       29.65R
IOWA CITY      CLOUDY    48  44  86 E14G24    29.65R
FORT DODGE     CLOUDY    50  43  76 E17G23    29.73R
$$

...NORTHERN ILLINOIS...


CITY           SKY/WX    TMP DP  RH WIND       PRES   REMARKS
CHICAGO-OHARE  LGT RAIN  44  39  82 E9        29.80R
CHICAGO-MIDWAY LGT RAIN  46  41  82 E9        29.80R
MOLINE         CLOUDY    47  43  86 E32G40    29.58F
ROCKFORD       LGT RAIN  46  40  79 E13       29.80S
PEORIA         CLOUDY    50  45  83 E14       29.60F
$$

NOTE: "FAIR" INDICATES FEW OR NO CLOUDS BELOW 12,000 FEET WITH NO
SIGNIFICANT WEATHER AND/OR OBSTRUCTIONS TO VISIBILITY. WIND
SPEEDS ARE IN MILES-PER-HOUR.



USA.gov is the U.S. government's official web portal to all federal, state and local government web resources and services.